owner,sensor,date,latitude,longitude,vertical_datum,sea_water_temperature,qcFlag
BP,ioos:station:wmo:42369:2,2022-11-01T00:19:00Z,27.2039,-90.2726,509.7,11.1,11111222
BP,ioos:station:wmo:42369:2,2022-11-01T00:39:00Z,27.2039,-90.2726,511.4,11.1,11111222
BP,ioos:station:wmo:42369:2,2022-11-01T00:59:00Z,27.2039,-90.2726,512.7,11.0,11111222
BP,ioos:station:wmo:42369:2,2022-11-01T01:19:00Z,27.2039,-90.2726,514.0,11.0,11111222
BP,ioos:station:wmo:42369:2,2022-11-01T01:39:00Z,27.2040,-90.2726,514.2,10.9,11111222
BP,ioos:station:wmo:42369:2,2022-11-01T01:59:00Z,27.2041,-90.2725,514.6,10.8,11111222
BP,ioos:station:wmo:42369:2,2022-11-01T02:19:00Z,27.2041,-90.2725,515.6,10.8,11111222
BP,ioos:station:wmo:42369:2,2022-11-01T02:39:00Z,27.2041,-90.2725,516.2,10.8,11111222
BP,ioos:station:wmo:42369:2,2022-11-01T02:59:00Z,27.2041,-90.2725,517.8,10.8,11111222
BP,ioos:station:wmo:42369:2,2022-11-01T03:19:00Z,27.2040,-90.2724,519.6,10.9,11111222
BP,ioos:station:wmo:42369:2,2022-11-01T03:39:00Z,27.2039,-90.2725,520.2,10.9,11111222
BP,ioos:station:wmo:42369:2,2022-11-01T03:59:00Z,27.2038,-90.2725,522.2,10.8,11111222
BP,ioos:station:wmo:42369:2,2022-11-01T08:59:00Z,27.2037,-90.2726,517.3,11.0,11111222
BP,ioos:station:wmo:42369:2,2022-11-01T09:19:00Z,27.2037,-90.2726,517.0,11.0,11111222
BP,ioos:station:wmo:42369:2,2022-11-01T09:39:00Z,27.2038,-90.2726,517.2,11.0,11111222
BP,ioos:station:wmo:42369:2,2022-11-01T09:59:00Z,27.2038,-90.2726,517.3,10.9,11111222
BP,ioos:station:wmo:42369:2,2022-11-01T10:19:00Z,27.2038,-90.2726,518.3,10.9,11111222
BP,ioos:station:wmo:42369:2,2022-11-01T10:39:00Z,27.2038,-90.2725,519.7,10.9,11111222
BP,ioos:station:wmo:42369:2,2022-11-01T10:59:00Z,27.2037,-90.2725,521.7,10.8,11111222
BP,ioos:station:wmo:42369:2,2022-11-01T11:19:00Z,27.2037,-90.2725,523.4,10.8,11111222
BP,ioos:station:wmo:42369:2,2022-11-01T11:39:00Z,27.2037,-90.2725,523.8,10.8,11111222
BP,ioos:station:wmo:42369:2,2022-11-01T11:59:00Z,27.2037,-90.2725,523.8,10.7,11111222
BP,ioos:station:wmo:42369:2,2022-11-01T12:19:00Z,27.2037,-90.2725,526.4,10.8,11111222
BP,ioos:station:wmo:42369:2,2022-11-01T12:39:00Z,27.2036,-90.2725,527.6,10.7,11111222
BP,ioos:station:wmo:42369:2,2022-11-01T12:59:00Z,27.2036,-90.2725,528.5,10.7,11111222
BP,ioos:station:wmo:42369:2,2022-11-01T13:19:00Z,27.2036,-90.2724,530.6,10.6,11111222
BP,ioos:station:wmo:42369:2,2022-11-01T13:39:00Z,27.2036,-90.2724,532.5,10.5,11111222
BP,ioos:station:wmo:42369:2,2022-11-01T13:59:00Z,27.2036,-90.2724,531.2,10.4,11111222
BP,ioos:station:wmo:42369:2,2022-11-01T14:19:00Z,27.2035,-90.2725,532.0,10.4,11111222
BP,ioos:station:wmo:42369:2,2022-11-01T14:39:00Z,27.2035,-90.2725,531.1,10.5,11111222
BP,ioos:station:wmo:42369:2,2022-11-01T14:59:00Z,27.2035,-90.2725,530.9,10.5,11111222
BP,ioos:station:wmo:42369:2,2022-11-01T15:19:00Z,27.2036,-90.2725,531.5,10.6,11111222
BP,ioos:station:wmo:42369:2,2022-11-01T15:39:00Z,27.2035,-90.2725,530.5,10.7,11111222
BP,ioos:station:wmo:42369:2,2022-11-01T15:59:00Z,27.2035,-90.2725,529.8,10.7,11111222
BP,ioos:station:wmo:42369:2,2022-11-01T16:19:00Z,27.2035,-90.2725,530.5,10.6,11111222
BP,ioos:station:wmo:42369:2,2022-11-01T16:39:00Z,27.2035,-90.2725,530.7,10.7,11111222
BP,ioos:station:wmo:42369:2,2022-11-01T16:59:00Z,27.2035,-90.2725,530.7,10.7,11111222
BP,ioos:station:wmo:42369:2,2022-11-01T17:19:00Z,27.2035,-90.2725,531.1,10.8,11111222
BP,ioos:station:wmo:42369:2,2022-11-01T17:39:00Z,27.2035,-90.2726,532.1,10.8,11111222
BP,ioos:station:wmo:42369:2,2022-11-01T17:59:00Z,27.2035,-90.2726,531.6,10.8,11111222
BP,ioos:station:wmo:42369:2,2022-11-01T18:19:00Z,27.2034,-90.2726,531.0,10.7,11111222
BP,ioos:station:wmo:42369:2,2022-11-01T18:39:00Z,27.2034,-90.2726,529.5,10.7,11111222
BP,ioos:station:wmo:42369:2,2022-11-01T18:59:00Z,27.2033,-90.2727,530.3,10.7,11111222
BP,ioos:station:wmo:42369:2,2022-11-01T19:19:00Z,27.2033,-90.2727,529.1,10.6,11111222
BP,ioos:station:wmo:42369:2,2022-11-01T19:39:00Z,27.2032,-90.2727,529.0,10.6,11111222
BP,ioos:station:wmo:42369:2,2022-11-01T19:59:00Z,27.2032,-90.2728,528.6,10.6,11111222
BP,ioos:station:wmo:42369:2,2022-11-01T20:19:00Z,27.2032,-90.2727,528.2,10.6,11111222
BP,ioos:station:wmo:42369:2,2022-11-01T20:39:00Z,27.2032,-90.2727,528.2,10.6,11111222
BP,ioos:station:wmo:42369:2,2022-11-01T20:59:00Z,27.2032,-90.2727,528.0,10.7,11111222
BP,ioos:station:wmo:42369:2,2022-11-01T21:19:00Z,27.2033,-90.2727,528.3,10.7,11111222
BP,ioos:station:wmo:42369:2,2022-11-01T21:39:00Z,27.2033,-90.2727,528.8,10.6,11111222
BP,ioos:station:wmo:42369:2,2022-11-01T21:59:00Z,27.2033,-90.2727,528.0,10.6,11111222
BP,ioos:station:wmo:42369:2,2022-11-01T22:19:00Z,27.2033,-90.2727,528.8,10.5,11111222
BP,ioos:station:wmo:42369:2,2022-11-01T22:39:00Z,27.2033,-90.2727,529.1,10.5,11111222
BP,ioos:station:wmo:42369:2,2022-11-01T22:59:00Z,27.2033,-90.2726,529.2,10.5,11111222
BP,ioos:station:wmo:42369:2,2022-11-01T23:19:00Z,27.2033,-90.2727,530.0,10.5,11111222
BP,ioos:station:wmo:42369:2,2022-11-01T23:39:00Z,27.2033,-90.2726,530.3,10.5,11111222
BP,ioos:station:wmo:42369:2,2022-11-01T23:59:00Z,27.2034,-90.2726,531.1,10.6,11111222
BP,ioos:station:wmo:42369:2,2022-11-02T00:19:00Z,27.2033,-90.2726,531.3,10.6,11111222
BP,ioos:station:wmo:42369:2,2022-11-02T00:39:00Z,27.2033,-90.2726,531.7,10.6,11111222
BP,ioos:station:wmo:42369:2,2022-11-02T00:59:00Z,27.2033,-90.2726,530.5,10.6,11111222
BP,ioos:station:wmo:42369:2,2022-11-02T01:19:00Z,27.2033,-90.2726,532.5,10.6,11111222
BP,ioos:station:wmo:42369:2,2022-11-02T01:39:00Z,27.2033,-90.2726,532.4,10.5,11111222
BP,ioos:station:wmo:42369:2,2022-11-02T01:59:00Z,27.2032,-90.2726,532.9,10.5,11111222
BP,ioos:station:wmo:42369:2,2022-11-02T02:19:00Z,27.2032,-90.2727,533.8,10.5,11111222
BP,ioos:station:wmo:42369:2,2022-11-02T02:39:00Z,27.2031,-90.2727,532.9,10.4,11111222
BP,ioos:station:wmo:42369:2,2022-11-02T02:59:00Z,27.2031,-90.2727,533.4,10.4,11111222
BP,ioos:station:wmo:42369:2,2022-11-02T03:19:00Z,27.2031,-90.2727,534.2,10.4,11111222
BP,ioos:station:wmo:42369:2,2022-11-02T03:39:00Z,27.2030,-90.2728,534.8,10.3,11111222
BP,ioos:station:wmo:42369:2,2022-11-02T03:59:00Z,27.2029,-90.2728,535.6,10.3,11111222
BP,ioos:station:wmo:42369:2,2022-11-02T04:19:00Z,27.2029,-90.2728,535.4,10.5,11111222
BP,ioos:station:wmo:42369:2,2022-11-02T04:39:00Z,27.2029,-90.2728,536.1,10.4,11111222
BP,ioos:station:wmo:42369:2,2022-11-02T04:59:00Z,27.2028,-90.2728,537.4,10.4,11111222
BP,ioos:station:wmo:42369:2,2022-11-02T05:19:00Z,27.2028,-90.2728,537.8,10.3,11111222
BP,ioos:station:wmo:42369:2,2022-11-02T05:39:00Z,27.2027,-90.2728,538.4,10.4,11111222
BP,ioos:station:wmo:42369:2,2022-11-02T05:59:00Z,27.2027,-90.2728,538.3,10.4,11111222
BP,ioos:station:wmo:42369:2,2022-11-02T06:19:00Z,27.2027,-90.2728,538.3,10.4,11111222
BP,ioos:station:wmo:42369:2,2022-11-02T06:39:00Z,27.2027,-90.2728,537.7,10.4,11111222
BP,ioos:station:wmo:42369:2,2022-11-02T06:59:00Z,27.2027,-90.2727,538.4,10.4,11111222
BP,ioos:station:wmo:42369:2,2022-11-02T07:19:00Z,27.2027,-90.2727,537.5,10.3,11111222
BP,ioos:station:wmo:42369:2,2022-11-02T07:39:00Z,27.2027,-90.2727,537.6,10.3,11111222
BP,ioos:station:wmo:42369:2,2022-11-02T07:59:00Z,27.2027,-90.2727,538.9,10.2,11111222
BP,ioos:station:wmo:42369:2,2022-11-02T08:19:00Z,27.2027,-90.2728,539.2,10.2,11111222
BP,ioos:station:wmo:42369:2,2022-11-02T08:39:00Z,27.2027,-90.2727,539.9,10.3,11111222
BP,ioos:station:wmo:42369:2,2022-11-02T08:59:00Z,27.2027,-90.2727,539.0,10.4,11111222
BP,ioos:station:wmo:42369:2,2022-11-02T09:19:00Z,27.2027,-90.2727,537.8,10.4,11111222
BP,ioos:station:wmo:42369:2,2022-11-02T09:39:00Z,27.2028,-90.2727,536.5,10.4,11111222
BP,ioos:station:wmo:42369:2,2022-11-02T09:59:00Z,27.2028,-90.2727,536.5,10.4,11111222
BP,ioos:station:wmo:42369:2,2022-11-02T10:19:00Z,27.2028,-90.2727,536.3,10.4,11111222
BP,ioos:station:wmo:42369:2,2022-11-02T10:39:00Z,27.2028,-90.2727,536.4,10.4,11111222
BP,ioos:station:wmo:42369:2,2022-11-02T10:59:00Z,27.2028,-90.2727,536.2,10.4,11111222
BP,ioos:station:wmo:42369:2,2022-11-02T11:19:00Z,27.2028,-90.2728,534.8,10.5,11111222
BP,ioos:station:wmo:42369:2,2022-11-02T11:39:00Z,27.2028,-90.2728,535.1,10.5,11111222
BP,ioos:station:wmo:42369:2,2022-11-02T11:59:00Z,27.2027,-90.2728,535.8,10.4,11111222
BP,ioos:station:wmo:42369:2,2022-11-02T12:19:00Z,27.2027,-90.2728,537.4,10.4,11111222
BP,ioos:station:wmo:42369:2,2022-11-02T12:39:00Z,27.2027,-90.2728,537.2,10.4,11111222
BP,ioos:station:wmo:42369:2,2022-11-02T12:59:00Z,27.2027,-90.2728,537.8,10.4,11111222
BP,ioos:station:wmo:42369:2,2022-11-02T13:19:00Z,27.2026,-90.2728,538.6,10.4,11111222
BP,ioos:station:wmo:42369:2,2022-11-02T13:39:00Z,27.2026,-90.2728,538.8,10.4,11111222
BP,ioos:station:wmo:42369:2,2022-11-02T13:59:00Z,27.2026,-90.2728,540.0,10.4,11111222
BP,ioos:station:wmo:42369:2,2022-11-02T14:19:00Z,27.2026,-90.2728,539.7,10.4,11111222
BP,ioos:station:wmo:42369:2,2022-11-02T14:39:00Z,27.2026,-90.2727,540.9,10.3,11111222
BP,ioos:station:wmo:42369:2,2022-11-02T14:59:00Z,27.2027,-90.2727,541.3,10.3,11111222
BP,ioos:station:wmo:42369:2,2022-11-02T15:19:00Z,27.2026,-90.2727,541.9,10.3,11111222
BP,ioos:station:wmo:42369:2,2022-11-02T15:39:00Z,27.2026,-90.2727,542.7,10.3,11111222
BP,ioos:station:wmo:42369:2,2022-11-02T15:59:00Z,27.2027,-90.2727,543.0,10.3,11111222
BP,ioos:station:wmo:42369:2,2022-11-02T16:19:00Z,27.2027,-90.2727,542.2,10.2,11111222
BP,ioos:station:wmo:42369:2,2022-11-02T16:39:00Z,27.2027,-90.2727,542.6,10.2,11111222
BP,ioos:station:wmo:42369:2,2022-11-02T16:59:00Z,27.2027,-90.2727,541.2,10.2,11111222
BP,ioos:station:wmo:42369:2,2022-11-02T17:19:00Z,27.2027,-90.2727,540.7,10.2,11111222
BP,ioos:station:wmo:42369:2,2022-11-02T17:39:00Z,27.2027,-90.2728,538.9,10.2,11111222
BP,ioos:station:wmo:42369:2,2022-11-02T17:59:00Z,27.2028,-90.2727,538.9,10.2,11111222
BP,ioos:station:wmo:42369:2,2022-11-02T18:19:00Z,27.2028,-90.2728,538.3,10.2,11111222
BP,ioos:station:wmo:42369:2,2022-11-02T18:39:00Z,27.2027,-90.2728,537.8,10.2,11111222
BP,ioos:station:wmo:42369:2,2022-11-02T18:59:00Z,27.2027,-90.2728,535.8,10.3,11111222
BP,ioos:station:wmo:42369:2,2022-11-02T19:19:00Z,27.2027,-90.2728,534.6,10.2,11111222
BP,ioos:station:wmo:42369:2,2022-11-02T19:39:00Z,27.2027,-90.2729,533.8,10.2,11111222
BP,ioos:station:wmo:42369:2,2022-11-02T19:59:00Z,27.2027,-90.2729,532.7,10.2,11111222
BP,ioos:station:wmo:42369:2,2022-11-02T20:19:00Z,27.2027,-90.2729,531.5,10.2,11111222
BP,ioos:station:wmo:42369:2,2022-11-02T20:39:00Z,27.2027,-90.2729,531.0,10.2,11111222
BP,ioos:station:wmo:42369:2,2022-11-02T20:59:00Z,27.2027,-90.2730,528.9,10.3,11111222
BP,ioos:station:wmo:42369:2,2022-11-02T21:19:00Z,27.2027,-90.2730,527.0,10.3,11111222
BP,ioos:station:wmo:42369:2,2022-11-02T21:39:00Z,27.2027,-90.2730,526.7,10.2,11111222
BP,ioos:station:wmo:42369:2,2022-11-02T21:59:00Z,27.2027,-90.2730,525.7,10.2,11111222
BP,ioos:station:wmo:42369:2,2022-11-02T22:19:00Z,27.2028,-90.2730,526.3,10.3,11111222
BP,ioos:station:wmo:42369:2,2022-11-02T22:39:00Z,27.2028,-90.2730,525.0,10.3,11111222
BP,ioos:station:wmo:42369:2,2022-11-02T22:59:00Z,27.2028,-90.2730,525.5,10.3,11111222
BP,ioos:station:wmo:42369:2,2022-11-02T23:19:00Z,27.2028,-90.2730,525.0,10.3,11111222
BP,ioos:station:wmo:42369:2,2022-11-02T23:39:00Z,27.2028,-90.2730,525.1,10.3,11111222
BP,ioos:station:wmo:42369:2,2022-11-02T23:59:00Z,27.2028,-90.2730,525.1,10.3,11111222
BP,ioos:station:wmo:42369:2,2022-11-03T00:19:00Z,27.2028,-90.2730,525.4,10.3,11111222
BP,ioos:station:wmo:42369:2,2022-11-03T00:39:00Z,27.2028,-90.2730,525.5,10.2,11111222
BP,ioos:station:wmo:42369:2,2022-11-03T00:59:00Z,27.2028,-90.2729,524.8,10.2,11111222
BP,ioos:station:wmo:42369:2,2022-11-03T01:19:00Z,27.2028,-90.2730,523.3,10.2,11111222
BP,ioos:station:wmo:42369:2,2022-11-03T01:39:00Z,27.2028,-90.2730,523.4,10.2,11111222
BP,ioos:station:wmo:42369:2,2022-11-03T01:59:00Z,27.2027,-90.2730,524.0,10.2,11111222
BP,ioos:station:wmo:42369:2,2022-11-03T02:19:00Z,27.2027,-90.2730,524.2,10.2,11111222
BP,ioos:station:wmo:42369:2,2022-11-03T02:39:00Z,27.2027,-90.2730,524.0,10.1,11111222
BP,ioos:station:wmo:42369:2,2022-11-03T02:59:00Z,27.2027,-90.2730,524.9,10.1,11111222
BP,ioos:station:wmo:42369:2,2022-11-03T03:19:00Z,27.2027,-90.2730,524.8,10.2,11111222
BP,ioos:station:wmo:42369:2,2022-11-03T03:39:00Z,27.2026,-90.2730,525.8,10.2,11111222
BP,ioos:station:wmo:42369:2,2022-11-03T03:59:00Z,27.2026,-90.2730,526.2,10.2,11111222
BP,ioos:station:wmo:42369:2,2022-11-03T04:19:00Z,27.2026,-90.2731,524.5,10.3,11111222
BP,ioos:station:wmo:42369:2,2022-11-03T04:39:00Z,27.2027,-90.2731,522.9,10.3,11111222
BP,ioos:station:wmo:42369:2,2022-11-03T04:59:00Z,27.2027,-90.2731,521.6,10.3,11111222
BP,ioos:station:wmo:42369:2,2022-11-03T05:19:00Z,27.2028,-90.2731,520.0,10.3,11111222
BP,ioos:station:wmo:42369:2,2022-11-03T05:39:00Z,27.2028,-90.2731,520.3,10.3,11111222
BP,ioos:station:wmo:42369:2,2022-11-03T05:59:00Z,27.2028,-90.2731,519.3,10.2,11111222
BP,ioos:station:wmo:42369:2,2022-11-03T06:19:00Z,27.2028,-90.2730,520.8,10.2,11111222
BP,ioos:station:wmo:42369:2,2022-11-03T06:39:00Z,27.2027,-90.2730,519.7,10.2,11111222
BP,ioos:station:wmo:42369:2,2022-11-03T06:59:00Z,27.2027,-90.2731,519.9,10.2,11111222
BP,ioos:station:wmo:42369:2,2022-11-03T07:19:00Z,27.2027,-90.2730,520.8,10.2,11111222
BP,ioos:station:wmo:42369:2,2022-11-03T07:39:00Z,27.2027,-90.2730,522.1,10.2,11111222
BP,ioos:station:wmo:42369:2,2022-11-03T07:59:00Z,27.2027,-90.2730,521.5,10.2,11111222
BP,ioos:station:wmo:42369:2,2022-11-03T08:19:00Z,27.2028,-90.2730,519.4,10.3,11111222
BP,ioos:station:wmo:42369:2,2022-11-03T08:39:00Z,27.2028,-90.2731,517.3,10.3,11111222
BP,ioos:station:wmo:42369:2,2022-11-03T08:59:00Z,27.2029,-90.2731,515.8,10.3,11111222
BP,ioos:station:wmo:42369:2,2022-11-03T09:19:00Z,27.2029,-90.2731,513.5,10.3,11111222
BP,ioos:station:wmo:42369:2,2022-11-03T09:39:00Z,27.2029,-90.2731,512.8,10.3,11111222
BP,ioos:station:wmo:42369:2,2022-11-03T09:59:00Z,27.2029,-90.2731,512.8,10.3,11111222
BP,ioos:station:wmo:42369:2,2022-11-03T10:19:00Z,27.2029,-90.2731,512.2,10.3,11111222
BP,ioos:station:wmo:42369:2,2022-11-03T10:39:00Z,27.2029,-90.2731,511.2,10.4,11111222
BP,ioos:station:wmo:42369:2,2022-11-03T10:59:00Z,27.2030,-90.2731,510.7,10.4,11111222
BP,ioos:station:wmo:42369:2,2022-11-03T11:19:00Z,27.2030,-90.2731,510.2,10.4,11111222
BP,ioos:station:wmo:42369:2,2022-11-03T11:39:00Z,27.2030,-90.2730,510.5,10.4,11111222
BP,ioos:station:wmo:42369:2,2022-11-03T11:59:00Z,27.2030,-90.2730,510.9,10.4,11111222
BP,ioos:station:wmo:42369:2,2022-11-03T12:19:00Z,27.2030,-90.2730,511.8,10.4,11111222
BP,ioos:station:wmo:42369:2,2022-11-03T12:39:00Z,27.2029,-90.2730,512.1,10.5,11111222
BP,ioos:station:wmo:42369:2,2022-11-03T12:59:00Z,27.2029,-90.2731,509.7,10.5,11111222
BP,ioos:station:wmo:42369:2,2022-11-03T13:19:00Z,27.2028,-90.2732,508.7,10.5,11111222
BP,ioos:station:wmo:42369:2,2022-11-03T13:39:00Z,27.2028,-90.2732,507.6,10.6,11111222
BP,ioos:station:wmo:42369:2,2022-11-03T13:59:00Z,27.2029,-90.2732,507.5,10.5,11111222
BP,ioos:station:wmo:42369:2,2022-11-03T14:19:00Z,27.2029,-90.2731,507.0,10.5,11111222
BP,ioos:station:wmo:42369:2,2022-11-03T14:39:00Z,27.2029,-90.2731,507.4,10.5,11111222
BP,ioos:station:wmo:42369:2,2022-11-03T14:59:00Z,27.2029,-90.2731,507.0,10.5,11111222
BP,ioos:station:wmo:42369:2,2022-11-03T15:19:00Z,27.2030,-90.2730,507.6,10.6,11111222
BP,ioos:station:wmo:42369:2,2022-11-03T15:39:00Z,27.2030,-90.2730,507.1,10.6,11111222
BP,ioos:station:wmo:42369:2,2022-11-03T15:59:00Z,27.2030,-90.2731,506.6,10.6,11111222
BP,ioos:station:wmo:42369:2,2022-11-03T16:19:00Z,27.2030,-90.2730,506.8,10.5,11111222
BP,ioos:station:wmo:42369:2,2022-11-03T16:39:00Z,27.2030,-90.2730,507.5,10.6,11111222
BP,ioos:station:wmo:42369:2,2022-11-03T16:59:00Z,27.2030,-90.2730,506.9,10.5,11111222
BP,ioos:station:wmo:42369:2,2022-11-03T17:19:00Z,27.2031,-90.2731,506.1,10.5,11111222
BP,ioos:station:wmo:42369:2,2022-11-03T17:39:00Z,27.2030,-90.2731,504.5,10.5,11111222
BP,ioos:station:wmo:42369:2,2022-11-03T17:59:00Z,27.2031,-90.2731,504.1,10.5,11111222
BP,ioos:station:wmo:42369:2,2022-11-03T18:19:00Z,27.2031,-90.2731,503.0,10.5,11111222
BP,ioos:station:wmo:42369:2,2022-11-03T18:39:00Z,27.2032,-90.2731,502.1,10.5,11111222
BP,ioos:station:wmo:42369:2,2022-11-03T18:59:00Z,27.2032,-90.2731,501.4,10.5,11111222
BP,ioos:station:wmo:42369:2,2022-11-03T19:19:00Z,27.2033,-90.2731,500.2,10.5,11111222
BP,ioos:station:wmo:42369:2,2022-11-03T19:39:00Z,27.2033,-90.2731,499.6,10.5,11111222
BP,ioos:station:wmo:42369:2,2022-11-03T19:59:00Z,27.2033,-90.2731,497.9,10.6,11111222
BP,ioos:station:wmo:42369:2,2022-11-03T20:19:00Z,27.2033,-90.2731,496.2,10.7,11111222
BP,ioos:station:wmo:42369:2,2022-11-03T20:39:00Z,27.2034,-90.2732,494.5,10.7,11111222
BP,ioos:station:wmo:42369:2,2022-11-03T20:59:00Z,27.2034,-90.2732,492.5,10.8,11111222
BP,ioos:station:wmo:42369:2,2022-11-03T21:19:00Z,27.2034,-90.2733,490.6,10.8,11111222
BP,ioos:station:wmo:42369:2,2022-11-03T21:39:00Z,27.2034,-90.2733,489.5,10.8,11111222
BP,ioos:station:wmo:42369:2,2022-11-03T21:59:00Z,27.2034,-90.2733,488.6,10.8,11111222
BP,ioos:station:wmo:42369:2,2022-11-03T22:19:00Z,27.2034,-90.2734,488.0,10.9,11111222
BP,ioos:station:wmo:42369:2,2022-11-03T22:39:00Z,27.2034,-90.2734,486.3,10.9,11111222
BP,ioos:station:wmo:42369:2,2022-11-03T22:59:00Z,27.2035,-90.2734,485.9,10.9,11111222
BP,ioos:station:wmo:42369:2,2022-11-03T23:19:00Z,27.2035,-90.2735,483.9,10.9,11111222
BP,ioos:station:wmo:42369:2,2022-11-03T23:39:00Z,27.2035,-90.2735,483.5,10.9,11111222
BP,ioos:station:wmo:42369:2,2022-11-03T23:59:00Z,27.2035,-90.2735,482.6,10.9,11111222
BP,ioos:station:wmo:42369:2,2022-11-04T00:19:00Z,27.2035,-90.2735,481.7,10.9,11111222
BP,ioos:station:wmo:42369:2,2022-11-04T00:39:00Z,27.2034,-90.2735,480.7,11.0,11111222
BP,ioos:station:wmo:42369:2,2022-11-04T00:59:00Z,27.2034,-90.2737,479.6,11.1,11111222
BP,ioos:station:wmo:42369:2,2022-11-04T01:19:00Z,27.2034,-90.2737,478.5,11.0,11111222
BP,ioos:station:wmo:42369:2,2022-11-04T01:39:00Z,27.2034,-90.2737,477.8,11.0,11111222
BP,ioos:station:wmo:42369:2,2022-11-04T01:59:00Z,27.2034,-90.2737,478.2,11.0,11111222
BP,ioos:station:wmo:42369:2,2022-11-04T02:19:00Z,27.2033,-90.2737,479.5,11.0,11111222
BP,ioos:station:wmo:42369:2,2022-11-04T02:39:00Z,27.2032,-90.2737,478.9,11.0,11111222
BP,ioos:station:wmo:42369:2,2022-11-04T02:59:00Z,27.2032,-90.2737,479.5,11.0,11111222
BP,ioos:station:wmo:42369:2,2022-11-04T03:19:00Z,27.2032,-90.2737,479.4,11.0,11111222
BP,ioos:station:wmo:42369:2,2022-11-04T03:39:00Z,27.2032,-90.2737,478.9,11.0,11111222
BP,ioos:station:wmo:42369:2,2022-11-04T03:59:00Z,27.2033,-90.2737,479.0,11.0,11111222
BP,ioos:station:wmo:42369:2,2022-11-04T04:19:00Z,27.2033,-90.2737,479.0,11.0,11111222
BP,ioos:station:wmo:42369:2,2022-11-04T04:39:00Z,27.2034,-90.2737,479.0,10.9,11111222
BP,ioos:station:wmo:42369:2,2022-11-04T04:59:00Z,27.2034,-90.2737,479.4,10.9,11111222
BP,ioos:station:wmo:42369:2,2022-11-04T05:19:00Z,27.2034,-90.2737,479.4,10.9,11111222
BP,ioos:station:wmo:42369:2,2022-11-04T05:39:00Z,27.2034,-90.2737,478.7,10.9,11111222
BP,ioos:station:wmo:42369:2,2022-11-04T05:59:00Z,27.2035,-90.2736,478.1,10.8,11111222
BP,ioos:station:wmo:42369:2,2022-11-04T06:19:00Z,27.2035,-90.2736,479.0,10.8,11111222
BP,ioos:station:wmo:42369:2,2022-11-04T06:39:00Z,27.2034,-90.2736,478.7,10.8,11111222
BP,ioos:station:wmo:42369:2,2022-11-04T06:59:00Z,27.2035,-90.2736,477.4,10.9,11111222
BP,ioos:station:wmo:42369:2,2022-11-04T07:19:00Z,27.2036,-90.2736,476.0,10.8,11111222
BP,ioos:station:wmo:42369:2,2022-11-04T07:39:00Z,27.2036,-90.2736,474.9,10.9,11111222
BP,ioos:station:wmo:42369:2,2022-11-04T07:59:00Z,27.2038,-90.2736,474.7,10.9,11111222
BP,ioos:station:wmo:42369:2,2022-11-04T08:19:00Z,27.2038,-90.2736,474.4,10.9,11111222
BP,ioos:station:wmo:42369:2,2022-11-04T08:39:00Z,27.2037,-90.2737,473.7,10.9,11111222
BP,ioos:station:wmo:42369:2,2022-11-04T08:59:00Z,27.2037,-90.2737,473.7,10.9,11111222
BP,ioos:station:wmo:42369:2,2022-11-04T09:19:00Z,27.2037,-90.2737,473.6,11.0,11111222
BP,ioos:station:wmo:42369:2,2022-11-04T09:39:00Z,27.2037,-90.2737,473.3,11.0,11111222
BP,ioos:station:wmo:42369:2,2022-11-04T09:59:00Z,27.2037,-90.2737,472.4,11.1,11111222
BP,ioos:station:wmo:42369:2,2022-11-04T10:19:00Z,27.2038,-90.2737,472.2,11.1,11111222
BP,ioos:station:wmo:42369:2,2022-11-04T10:39:00Z,27.2038,-90.2737,471.1,11.1,11111222
BP,ioos:station:wmo:42369:2,2022-11-04T10:59:00Z,27.2038,-90.2738,470.5,11.1,11111222
BP,ioos:station:wmo:42369:2,2022-11-04T11:19:00Z,27.2038,-90.2737,470.9,11.1,11111222
BP,ioos:station:wmo:42369:2,2022-11-04T11:39:00Z,27.2039,-90.2737,471.3,11.2,11111222
BP,ioos:station:wmo:42369:2,2022-11-04T11:59:00Z,27.2039,-90.2737,470.7,11.2,11111222
BP,ioos:station:wmo:42369:2,2022-11-04T12:19:00Z,27.2040,-90.2737,469.9,11.1,11111222
BP,ioos:station:wmo:42369:2,2022-11-04T12:39:00Z,27.2040,-90.2737,469.8,11.2,11111222
BP,ioos:station:wmo:42369:2,2022-11-04T12:59:00Z,27.2040,-90.2737,469.7,11.2,11111222
BP,ioos:station:wmo:42369:2,2022-11-04T13:19:00Z,27.2040,-90.2737,469.1,11.3,11111222
BP,ioos:station:wmo:42369:2,2022-11-04T13:39:00Z,27.2041,-90.2737,468.0,11.3,11111222
BP,ioos:station:wmo:42369:2,2022-11-04T13:59:00Z,27.2041,-90.2737,467.6,11.3,11111222
BP,ioos:station:wmo:42369:2,2022-11-04T14:19:00Z,27.2041,-90.2737,468.0,11.3,11111222
BP,ioos:station:wmo:42369:2,2022-11-04T14:39:00Z,27.2042,-90.2737,466.8,11.5,11111222
BP,ioos:station:wmo:42369:2,2022-11-04T14:59:00Z,27.2042,-90.2737,466.3,11.5,11111222
BP,ioos:station:wmo:42369:2,2022-11-04T15:19:00Z,27.2043,-90.2736,467.3,11.4,11111222
BP,ioos:station:wmo:42369:2,2022-11-04T15:39:00Z,27.2043,-90.2736,467.8,11.4,11111222
BP,ioos:station:wmo:42369:2,2022-11-04T15:59:00Z,27.2043,-90.2736,467.9,11.4,11111222
BP,ioos:station:wmo:42369:2,2022-11-04T16:19:00Z,27.2044,-90.2735,468.4,11.4,11111222
BP,ioos:station:wmo:42369:2,2022-11-04T16:39:00Z,27.2045,-90.2735,468.3,11.4,11111222
BP,ioos:station:wmo:42369:2,2022-11-04T16:59:00Z,27.2045,-90.2735,467.8,11.4,11111222
BP,ioos:station:wmo:42369:2,2022-11-04T17:19:00Z,27.2046,-90.2735,468.0,11.5,11111222
BP,ioos:station:wmo:42369:2,2022-11-04T18:39:00Z,27.2048,-90.2733,470.9,11.3,11111222
BP,ioos:station:wmo:42369:2,2022-11-04T18:59:00Z,27.2049,-90.2733,470.2,11.4,11111222
BP,ioos:station:wmo:42369:2,2022-11-04T19:19:00Z,27.2048,-90.2733,469.9,11.4,11111222
BP,ioos:station:wmo:42369:2,2022-11-04T19:39:00Z,27.2048,-90.2733,469.6,11.4,11111222
BP,ioos:station:wmo:42369:2,2022-11-04T19:59:00Z,27.2049,-90.2733,470.6,11.3,11111222
BP,ioos:station:wmo:42369:2,2022-11-04T22:39:00Z,27.2050,-90.2732,470.8,11.2,11111222
BP,ioos:station:wmo:42369:2,2022-11-04T22:59:00Z,27.2049,-90.2732,471.6,11.2,11111222
BP,ioos:station:wmo:42369:2,2022-11-04T23:19:00Z,27.2050,-90.2732,471.3,11.1,11111222
BP,ioos:station:wmo:42369:2,2022-11-04T23:39:00Z,27.2050,-90.2732,471.7,11.1,11111222
BP,ioos:station:wmo:42369:2,2022-11-04T23:59:00Z,27.2049,-90.2732,470.4,11.1,11111222
BP,ioos:station:wmo:42369:2,2022-11-05T00:39:00Z,27.2048,-90.2732,470.9,11.1,11111222
BP,ioos:station:wmo:42369:2,2022-11-05T01:39:00Z,27.2048,-90.2733,469.1,11.1,11111222
BP,ioos:station:wmo:42369:2,2022-11-05T01:59:00Z,27.2048,-90.2734,468.2,11.2,11111222
BP,ioos:station:wmo:42369:2,2022-11-05T02:19:00Z,27.2047,-90.2734,469.0,11.2,11111222
BP,ioos:station:wmo:42369:2,2022-11-05T02:39:00Z,27.2048,-90.2734,466.7,11.3,11111222
BP,ioos:station:wmo:42369:2,2022-11-05T02:59:00Z,27.2049,-90.2735,466.2,11.4,11111222
BP,ioos:station:wmo:42369:2,2022-11-05T03:19:00Z,27.2049,-90.2735,465.0,11.3,11111222
BP,ioos:station:wmo:42369:2,2022-11-05T03:39:00Z,27.2049,-90.2735,464.9,11.3,11111222
BP,ioos:station:wmo:42369:2,2022-11-05T03:59:00Z,27.2049,-90.2735,465.5,11.3,11111222
BP,ioos:station:wmo:42369:2,2022-11-05T04:19:00Z,27.2049,-90.2735,465.1,11.4,11111222